Location: Bosdarros
(43.2167°N, 0.3667°W)
Time: 02:54:34
(UTC+00:00)

Cosmos 1190 Rocket - Pass Details

Date: 22 April 2021
Orbit: 757 x 779 km, 74.1° (Epoch: 15 May)

Event Time Altitude Azimuth Distance (km) Brightness Sun altitude
Rises 20:55:36 0° 209° (SSW) 3,223 7.1 -20.2°
Reaches altitude 10° 20:58:00 10° 213° (SSW) 2,298 6.4 -20.5°
Maximum altitude 21:03:09 60° 293° (WNW) 870 4.5 -21.2°
Drops below altitude 10° 21:08:19 10° 14° (NNE) 2,301 6.8 -21.9°
Sets 21:10:44 0° 18° (NNE) 3,228 7.6 -22.2°
